SCP
0 0 0 0 0 0 0 0 0 0 0 0 0 0 0 0 0 0 0 0 0 0 0 0 0 0 0 0 0 0 0 0 0 0 0 0 0 0 0 0 0 0 0 0 0 0 0 0 0
0 0 0 0 0 0 0 0 0 0 0 0 0 0 0 0 0 0 0 0 0 0 0 0 1 1 1 0 0 0 0 0 0 0 0 0 0 0 0 0 0 0 0 0 0 0 0 0 0
0 0 0 0 0 0 0 0 0 0 0 0 0 0 0 0 0 0 0 0 0 0 0 1 1 1 1 1 1 0 0 0 0 0 0 0 0 0 0 0 0 0 0 0 0 0 0 0 0
0 0 0 0 0 0 0 0 0 0 0 0 0 0 0 0 0 0 0 0 0 0 0 1 1 1 1 1 1 1 1 0 0 0 0 0 0 0 0 0 0 0 0 0 0 0 0 0 0
0 0 0 0 0 0 0 0 0 0 0 0 0 0 0 0 0 0 0 0 0 0 0 0 1 1 1 1 1 1 1 1 1 1 1 0 0 0 0 0 0 0 0 0 0 0 0 0 0
0 0 0 0 0 0 0 0 0 0 0 0 0 0 0 0 0 0 0 0 0 0 0 0 1 1 1 1 1 1 1 1 1 1 1 1 0 0 0 0 0 0 0 0 0 0 0 0 0
0 0 0 0 0 0 0 0 0 0 0 0 0 0 0 0 0 0 0 0 0 0 0 0 1 1 1 1 1 1 1 1 1 1 1 1 0 0 0 0 0 0 0 0 0 0 0 0 0
0 0 0 0 0 0 0 0 0 0 0 0 0 0 0 0 0 0 0 0 0 0 0 0 1 1 1 1 1 1 1 1 1 1 1 0 0 0 0 0 0 0 0 0 0 0 0 0 0
0 0 0 0 0 0 0 0 0 0 0 0 0 0 0 0 0 0 0 0 0 0 0 0 1 1 1 1 1 1 1 0 0 0 0 0 0 0 0 0 0 0 0 0 0 0 0 0 0
0 0 0 0 0 0 0 0 0 0 0 0 0 0 0 0 0 0 0 0 0 0 0 0 0 1 1 1 1 1 1 1 0 0 0 0 0 0 0 0 0 0 0 0 0 0 0 0 0
0 0 0 0 0 0 0 0 0 0 0 0 0 0 0 0 0 0 0 0 0 0 0 0 0 0 1 1 1 1 1 1 1 0 0 0 0 0 0 0 0 0 0 0 0 0 0 0 0
0 0 0 0 0 0 0 0 0 0 0 0 0 0 0 0 0 0 0 0 0 0 0 0 0 0 0 1 1 1 1 1 1 0 0 0 0 0 0 0 0 0 0 0 0 0 0 0 0
0 0 0 0 0 0 0 0 0 0 0 0 0 0 0 0 0 0 0 0 0 0 0 0 0 0 0 0 0 1 1 1 1 0 0 0 0 0 0 0 0 0 0 0 0 0 0 0 0
0 0 0 0 0 0 0 0 0 0 0 0 0 0 0 0 0 0 0 0 0 0 0 0 0 0 0 0 0 0 0 0 0 0 0 0 0 0 0 0 0 0 0 0 0 0 0 0 0
0 0 0 0 0 0 0 0 0 0 0 0 0 0 0 0 0 0 0 0 0 0 0 0 0 0 0 0 0 0 0 0 0 0 0 0 0 0 0 0 0 0 0 0 0 0 0 0 0
0 0 0 0 0 0 0 0 0 0 0 0 0 0 0 0 0 0 0 0 0 0 0 0 0 0 0 0 0 0 0 0 0 0 0 0 0 0 0 0 0 0 0 0 0 0 0 0 0
0 0 0 0 0 0 0 0 0 0 0 0 0 0 0 0 0 0 0 0 0 0 0 0 0 0 0 0 0 0 0 0 0 0 0 0 0 0 0 0 0 0 0 0 0 0 0 0 0
0 0 0 0 0 0 0 0 0 0 0 0 0 0 0 0 0 0 0 0 0 0 0 0 0 0 0 0 0 0 0 0 0 0 0 0 0 0 0 0 0 0 0 0 0 0 0 0 0
0 0 0 0 0 0 0 0 0 0 0 0 0 0 0 0 0 0 0 0 0 0 0 0 0 0 0 0 0 0 0 0 0 0 0 0 0 0 0 0 0 0 0 0 0 0 0 0 0
0 0 0 0 0 0 0 0 0 0 0 0 0 0 0 0 0 0 0 0 0 0 0 0 0 0 0 0 0 0 0 0 0 0 0 0 0 0 0 0 0 0 0 0 0 0 0 0 0
0 0 0 0 0 0 0 0 0 0 0 0 0 0 0 0 0 0 0 0 0 0 0 0 0 0 0 0 0 0 0 0 0 0 0 0 0 0 0 0 0 0 0 0 0 0 0 0 0
0 0 0 0 0 0 0 0 0 0 0 0 0 0 0 0 0 0 0 0 0 0 0 0 0 0 0 0 0 0 0 0 0 0 0 0 0 0 0 0 0 0 0 0 0 0 0 0 0
0 0 0 0 0 0 0 0 0 0 0 0 0 0 0 0 0 0 0 0 0 0 0 0 0 0 0 0 0 0 0 0 0 0 0 0 0 0 0 0 0 0 0 0 0 0 0 0 0
0 0 0 0 0 0 0 0 0 0 0 0 0 0 0 0 0 0 0 0 0 0 0 0 0 0 0 0 0 0 0 0 0 0 0 0 0 0 0 0 0 0 0 0 0 0 0 0 0
0 0 0 0 0 0 0 0 0 0 0 0 0 0 0 0 0 0 0 0 0 0 0 0 0 0 0 0 0 0 0 0 0 0 0 0 0 0 0 0 0 0 0 0 0 0 0 0 0
0 0 0 0 0 0 0 0 0 0 0 0 0 0 0 0 0 0 0 0 0 0 0 0 0 0 0 0 0 0 0 0 0 0 0 0 0 0 0 0 0 0 0 0 0 0 0 0 0
0 0 0 0 0 0 0 0 0 0 0 0 0 0 0 0 0 0 0 0 0 0 0 0 0 0 0 0 0 0 0 0 0 0 0 0 0 0 0 0 0 0 0 0 0 0 0 0 0
0 0 0 0 0 0 0 0 0 0 0 0 0 0 0 0 0 0 0 0 0 0 0 0 0 0 0 0 0 0 0 0 0 0 0 0 0 0 0 0 0 0 0 0 0 0 0 0 0
0 0 0 0 0 0 0 0 0 0 0 0 0 0 0 0 0 0 0 0 0 0 0 0 0 0 0 0 0 0 0 0 0 0 0 0 0 0 0 0 0 0 0 0 0 0 0 0 0
0 0 0 0 0 0 0 0 0 0 0 0 0 0 0 0 0 0 0 0 0 0 0 0 0 0 0 0 0 0 0 0 0 0 0 0 0 0 0 0 0 0 0 0 0 0 0 0 0
Wind_Speed
11 10 6 3 3 4 1 7 5 7 6 5 4 3 5 4 3 2 3 2 3 8 14 15 15 16 15 14 14 13 13 12 12 11 10 10 10 9 8 7 9 12 13 11 10 9 10 9 9
9 6 4 3 3 2 6 6 6 6 3 3 1 2 4 2 5 5 5 3 2 7 13 14 14 15 15 14 14 14 14 13 13 12 11 11 11 10 10 10 11 12 11 10 9 9 10 9 9
7 6 4 3 3 4 5 5 5 3 2 1 3 1 1 3 3 4 3 6 3 5 10 13 16 16 16 15 15 14 14 13 13 13 13 13 12 11 10 10 11 11 10 9 8 9 9 9 8
4 3 3 3 3 4 3 5 7 6 2 3 2 6 2 5 3 5 4 5 5 6 7 13 16 15 17 16 16 16 15 14 13 13 14 15 13 12 10 9 9 10 9 8 8 9 9 8 8
3 3 3 4 3 3 2 5 4 4 4 2 0 5 4 4 8 7 6 5 5 6 5 12 15 13 13 15 16 16 15 14 13 14 16 15 14 12 10 9 9 9 8 8 8 9 8 8 8
3 2 3 4 4 4 5 5 3 4 3 0 2 5 1 6 6 5 6 5 5 6 6 9 13 13 12 12 13 14 13 13 13 15 16 15 14 13 11 10 9 9 8 8 9 8 8 8 7
3 2 4 5 4 2 4 3 4 6 7 5 2 4 1 4 4 4 4 4 4 5 6 6 9 11 11 12 12 12 12 12 12 15 15 14 14 13 12 10 10 10 9 9 9 8 8 8 7
4 3 5 4 2 3 4 2 2 5 7 3 1 4 1 3 3 3 1 1 2 4 5 5 8 10 9 9 12 12 13 12 12 14 13 13 12 12 11 9 9 10 10 10 9 9 8 7 6
3 3 4 5 3 3 3 1 4 3 5 7 5 7 7 8 7 5 3 3 4 4 5 6 6 8 10 9 11 11 11 12 12 11 11 11 6 7 7 8 9 10 10 10 10 9 9 7 5
2 3 5 5 5 6 7 7 7 6 8 9 8 8 8 6 6 6 6 7 8 9 8 7 8 7 8 8 8 7 7 8 8 7 8 6 5 5 7 9 10 9 10 10 11 10 9 6 3
4 5 6 7 7 5 5 7 7 8 9 10 10 11 10 8 4 5 7 8 8 9 10 9 9 8 7 5 5 5 5 6 8 8 10 7 5 4 4 4 5 6 8 5 7 6 3 3 2
5 6 7 7 6 4 5 6 8 9 12 10 11 11 9 8 7 7 8 8 7 6 8 11 11 9 8 6 5 5 4 5 6 8 9 7 5 5 5 4 5 4 4 5 5 3 3 3 2
7 7 7 6 5 5 7 9 10 14 14 12 11 8 7 8 8 8 8 7 6 6 5 7 11 11 9 7 5 5 5 5 5 6 7 7 5 5 5 5 5 6 5 5 5 4 4 3 3
5 7 9 9 11 7 8 10 6 11 10 9 7 7 7 7 7 7 5 4 4 5 6 5 8 10 9 7 6 5 5 5 5 5 7 8 6 5 5 5 5 6 6 5 5 5 5 4 3
3 6 10 11 12 5 4 8 7 7 6 8 8 8 7 7 10 12 13 13 12 9 4 3 5 7 9 8 6 4 4 4 4 4 7 8 7 7 6 5 5 5 6 6 5 5 4 4 4
5 5 5 6 4 5 4 8 8 7 10 13 10 8 4 9 15 15 16 15 15 15 13 8 2 3 6 6 5 4 4 4 4 4 4 7 7 7 6 5 5 5 5 5 5 5 4 4 4
6 6 8 7 4 5 4 7 11 9 10 12 9 5 8 14 17 17 16 14 14 14 13 13 9 2 1 3 3 3 3 3 3 3 4 5 6 6 5 5 5 6 5 5 5 5 5 4 4
6 7 7 7 2 5 7 9 10 12 11 9 5 6 13 16 15 14 14 13 12 12 13 14 13 10 5 2 2 1 0 1 1 2 3 5 6 6 5 4 6 6 6 5 6 7 5 5 5
8 8 9 9 9 7 7 7 9 13 12 6 4 10 13 13 12 11 11 12 12 15 16 16 15 13 8 4 3 2 2 1 1 1 2 4 5 6 5 4 5 5 6 7 8 6 7 5 5
5 8 9 9 5 2 6 9 11 11 10 1 8 12 11 11 11 12 13 14 15 15 15 15 15 14 11 7 4 4 4 3 3 2 2 1 2 4 4 5 5 6 5 6 7 7 6 4 6
9 9 9 8 7 5 9 9 10 6 2 10 13 13 12 11 10 11 13 13 13 15 15 14 15 14 13 10 6 5 5 4 4 5 3 2 1 2 4 5 4 6 6 7 8 9 11 7 6
8 4 3 3 3 5 3 6 7 9 3 10 11 10 10 9 9 9 10 11 12 12 11 12 13 13 13 12 10 7 5 3 3 3 3 2 2 2 3 4 4 4 5 6 7 8 7 8 8
3 2 1 4 6 6 6 8 7 9 7 9 9 9 8 7 7 9 9 9 9 9 9 10 11 12 13 12 12 10 8 5 4 5 5 4 2 3 3 3 4 4 5 6 6 7 8 5 7
1 1 7 7 2 5 7 8 6 2 7 10 9 8 8 7 7 8 7 7 7 7 8 8 10 11 11 11 11 10 9 8 8 7 6 5 3 2 3 4 4 5 4 6 6 7 9 8 7
3 2 3 2 4 6 1 3 3 3 6 10 11 8 7 7 7 6 6 6 6 7 8 8 9 10 10 10 10 10 9 9 9 8 7 6 5 4 4 4 4 4 5 6 6 6 7 9 9
3 1 3 4 5 5 4 6 3 5 6 8 9 8 7 7 6 5 4 4 5 7 7 8 8 9 9 9 9 9 9 7 6 8 7 7 6 5 7 6 5 6 6 6 6 6 6 7 9
0 2 1 1 3 5 7 6 3 5 6 7 7 7 6 5 4 4 4 4 5 6 6 7 7 7 7 7 7 8 8 8 8 7 7 6 7 7 9 8 7 6 6 6 6 5 6 7 8
2 2 1 3 4 7 8 9 7 7 9 8 8 7 6 4 4 3 4 4 4 4 5 5 6 6 6 6 6 5 6 6 6 6 7 7 7 8 9 9 9 8 7 6 6 6 7 7 7
5 4 5 5 6 5 6 8 1 5 11 11 8 7 5 4 3 3 3 3 3 4 4 4 4 5 5 6 5 5 5 5 6 5 6 6 6 7 7 8 8 8 8 7 6 7 8 8 8
5 7 7 8 9 8 10 11 4 8 7 6 6 5 4 2 1 1 2 2 3 3 3 3 3 4 4 4 5 5 5 5 5 6 6 7 7 7 7 7 7 8 8 8 8 8 8 9 9
Wind_Direction
277 260 264 270 255 232 342 69 48 29 38 29 11 339 329 312 358 64 150 112 125 135 142 160 161 164 165 163 160 159 162 163 164 163 160 153 142 132 130 137 134 119 109 105 103 101 93 82 73
294 290 273 248 262 313 71 59 60 56 28 353 308 245 284 291 82 98 119 129 141 137 145 166 161 165 165 164 164 166 170 171 171 166 160 151 138 123 113 111 113 111 109 111 113 110 101 89 75
277 273 268 270 279 359 28 27 29 34 102 51 309 264 302 359 52 83 99 144 161 146 150 166 162 168 168 168 169 172 175 177 177 174 168 155 142 131 119 112 114 115 116 119 120 114 104 93 81
280 248 238 257 299 27 6 4 20 345 95 131 303 303 211 124 77 95 130 149 167 155 156 159 166 175 174 174 176 178 182 184 184 182 172 158 150 142 131 126 128 127 126 125 119 109 98 88 77
231 263 252 254 242 97 21 25 16 320 329 121 190 298 320 98 103 120 137 152 177 160 159 153 170 179 184 183 183 184 187 188 190 183 169 162 155 149 141 140 144 140 136 132 124 114 105 93 81
266 269 283 300 16 70 79 50 335 311 333 36 154 293 296 124 130 134 130 162 188 157 155 149 175 179 188 193 195 193 192 193 191 178 170 167 161 155 151 154 158 155 151 146 136 127 117 107 97
294 291 287 314 326 1 92 75 332 336 324 349 42 304 267 105 87 108 135 178 198 152 153 161 172 188 191 195 198 198 196 197 192 180 174 169 165 160 155 160 166 167 164 156 145 137 127 119 108
315 292 269 267 288 349 102 117 292 298 297 346 48 271 347 148 125 103 100 234 214 161 165 199 177 186 193 197 202 201 198 197 193 182 173 166 162 157 154 159 168 174 169 159 152 145 138 128 116
297 268 273 298 339 0 74 226 277 260 260 279 238 232 257 160 157 164 188 228 240 213 191 208 209 190 189 191 197 198 198 194 185 176 167 157 156 153 153 164 170 178 167 161 157 154 143 133 130
234 254 271 327 355 352 346 334 324 309 291 287 278 252 244 181 177 197 216 221 214 213 205 206 219 209 195 191 182 184 187 183 180 171 164 171 172 165 163 175 170 173 159 160 162 154 143 150 159
223 242 291 319 345 4 330 308 294 283 272 273 291 315 326 323 294 248 237 233 230 209 196 198 210 213 206 196 181 179 184 181 186 182 171 177 177 154 151 141 154 155 149 146 145 139 180 206 155
243 270 286 296 323 331 297 292 295 280 272 275 279 278 281 287 280 266 261 251 240 235 201 188 194 203 207 202 192 180 182 187 189 191 176 174 172 156 155 147 155 153 153 147 139 163 192 157 117
249 263 271 287 294 285 284 276 280 271 268 267 266 273 285 286 278 261 247 242 234 239 237 194 186 195 199 205 196 186 186 187 187 185 184 176 170 164 164 163 165 165 161 155 150 166 165 154 152
329 329 311 292 268 244 251 273 276 268 276 284 290 298 300 306 316 327 330 308 277 248 234 219 190 191 194 199 203 196 189 184 183 182 188 183 168 162 166 172 169 166 160 151 150 164 159 160 146
356 298 282 256 244 212 194 279 242 263 323 315 305 307 313 344 12 21 19 14 5 353 330 246 214 188 188 196 201 198 193 182 188 187 187 181 169 164 166 174 173 165 150 146 149 156 151 151 145
236 244 266 257 151 108 145 266 287 336 332 307 308 310 337 38 41 35 26 19 13 5 358 347 320 197 188 187 191 190 190 186 183 182 176 174 170 165 164 170 174 161 145 145 154 155 152 154 153
228 232 245 272 134 127 196 254 287 297 287 287 300 325 52 51 38 30 24 20 16 9 3 358 354 351 207 178 174 180 178 186 175 168 159 166 174 174 166 171 170 158 149 154 163 159 153 157 159
250 273 303 317 347 164 211 244 273 287 284 288 322 47 67 58 42 29 22 18 18 16 15 12 9 11 22 47 66 50 34 155 147 147 154 161 173 179 169 168 172 160 157 166 170 168 167 153 148
285 291 288 290 293 285 261 270 284 285 289 301 52 72 74 65 51 37 28 22 23 23 23 21 18 13 18 34 43 39 4 3 33 95 133 163 168 175 173 166 171 167 176 184 174 164 160 148 137
306 295 285 283 284 319 282 273 271 271 270 278 86 78 71 61 46 36 31 29 28 27 24 24 20 17 19 25 33 38 21 19 19 33 58 94 154 171 177 178 176 174 179 191 188 170 157 153 164
263 259 266 276 314 291 266 264 250 268 170 89 83 78 68 60 48 38 34 31 28 28 26 26 22 18 16 20 30 36 29 19 12 4 7 13 359 196 190 201 194 188 188 198 198 189 173 168 192
271 273 274 289 288 262 275 285 236 252 164 98 86 79 72 65 58 49 40 35 31 25 23 29 28 24 19 20 24 28 31 18 352 343 350 351 320 300 227 220 226 209 207 213 209 204 201 168 180
239 87 257 239 236 263 241 252 256 222 148 108 98 93 89 79 70 62 51 44 35 27 27 28 31 31 26 26 24 24 21 11 0 4 3 351 318 285 297 262 243 240 221 227 225 212 215 206 188
27 247 244 223 205 255 231 222 278 331 145 133 121 108 101 91 76 68 61 54 40 32 34 32 33 33 29 31 30 27 18 9 9 5 354 345 334 299 269 280 271 259 245 229 235 224 218 226 222
201 232 320 280 203 231 339 256 271 72 77 129 129 115 99 85 74 64 55 53 46 39 38 36 36 31 26 28 30 27 23 20 20 9 357 355 350 343 310 271 263 265 263 253 240 237 226 225 231
176 177 207 252 263 304 351 258 256 118 87 92 102 103 94 83 79 73 65 59 55 50 46 42 39 32 24 26 23 21 21 21 20 12 6 359 351 341 341 329 295 272 269 269 258 250 240 230 233
327 214 195 256 308 287 255 245 160 141 132 124 122 116 109 108 107 103 86 70 59 54 51 50 48 37 27 25 25 22 19 17 16 12 10 4 356 348 341 334 328 309 284 273 271 262 254 240 234
221 302 69 158 232 246 258 267 270 172 167 161 159 148 138 133 121 108 91 82 74 64 56 55 59 48 30 25 27 24 16 14 8 5 6 0 352 350 346 341 331 321 310 291 277 270 260 252 244
203 207 218 219 211 227 254 260 111 125 167 171 159 139 135 128 116 110 107 102 101 84 63 52 56 53 31 18 13 12 6 3 358 357 354 347 341 341 342 340 333 324 313 302 288 274 266 258 254
276 258 247 250 250 251 261 267 14 79 88 107 126 139 149 153 136 132 127 112 93 87 78 56 50 64 43 14 1 352 349 351 347 344 340 335 331 327 325 326 327 323 316 306 293 283 273 262 257